Walla Walla, WA

9:35 AM PDT on April 19, 2018 (GMT -0700)
Walla Walla Regional

Weather History for KALW - November, 2012

Change the Weather History Date:

Monday, November 26, 2012

  Actual Average Record
Temperature  
Mean Temperature 30 °F 38 °F  
Max Temperature 32 °F 44 °F 64 °F (1963)
Min Temperature 28 °F 32 °F 4 °F (1985)
Degree Days  
Heating Degree Days 35 27  
Month to date heating degree days 583  
Since 1 July heating degree days 1048  
Cooling Degree Days 0 0  
Month to date cooling degree days 0  
Year to date cooling degree days 850  
Moisture  
Dew Point 29 °F    
Average Humidity 94    
Maximum Humidity 100    
Minimum Humidity 87    
Precipitation  
Precipitation 0.00 in 0.10 in 1.12 in (1971)
Month to date precipitation 2.50  
Year to date precipitation 18.01  
Snow  
Snow 0.00 in 0.10 in 4.30 in (1979)
Month to date snowfall 0.9  
Year to date snowfall 7.0  
Since 1 July snowfall 1.0  
Snow Depth -    
Sea Level Pressure  
Sea Level Pressure 30.27 in    
Wind  
Wind Speed 5 mph (South)    
Max Wind Speed 8 mph    
Max Gust Speed -    
Visibility 1 miles    
Events Fog , Snow    
T = Trace of Precipitation, MM = Missing Value Source: NWS Daily Summary

Daily Weather History Graph

Daily Weather History Graph

Search for Another Location

Airport or City:

Astronomy

Nov. 26, 2012 Rise Set
Actual Time 7:09 AM PST 4:11 PM PST
Civil Twilight 6:35 AM PST 4:45 PM PST
Nautical Twilight 5:58 AM PST 5:22 PM PST
Astronomical Twilight 5:22 AM PST 5:58 PM PST
Moon 3:09 PM PST (11/26) 5:20 AM PST (11/26)
Length of Visible Light 10h 09m
Length of Day
9h 02m
Waxing Gibbous, 97% of the Moon is Illuminated
Nov 26
Waxing Gibbous
Nov 28
Full
Dec 6
Last Quarter
Dec 13
New
Dec 19
First Quarter

Hourly Weather History & Observations

Time (PST) Temp. Windchill Dew Point Humidity Pressure Visibility Wind Dir Wind Speed Gust Speed Precip Events Conditions
12:50 AM 30.2 °F 23.4 °F 28.4 °F 93% 30.29 in 2.5 mi South 6.9 mph - N/A   Partly Cloudy
12:53 AM 30.0 °F 23.2 °F 28.9 °F 96% 30.32 in 0.5 mi South 6.9 mph - N/A Fog Light Freezing Fog
1:01 AM 30.2 °F 23.4 °F 30.2 °F 100% 30.29 in 0.2 mi South 6.9 mph - N/A Fog Light Freezing Fog
1:10 AM 30.2 °F 22.6 °F 30.2 °F 100% 30.29 in 0.2 mi SSW 8.1 mph - N/A Fog Light Freezing Fog
1:23 AM 30.2 °F 23.4 °F 30.2 °F 100% 30.29 in 0.2 mi South 6.9 mph - N/A Fog Light Freezing Fog
1:41 AM 30.2 °F 22.6 °F 30.2 °F 100% 30.30 in 1.0 mi SSW 8.1 mph - 0.00 in Snow Light Snow
1:53 AM 30.9 °F 24.3 °F 30.0 °F 96% 30.33 in 0.5 mi SSW 6.9 mph - 0.00 in Fog , Snow Light Snow
2:07 AM 30.2 °F 24.3 °F 30.2 °F 100% 30.30 in 0.2 mi South 5.8 mph - 0.00 in Fog , Snow Light Snow
2:14 AM 30.2 °F 24.3 °F 30.2 °F 100% 30.30 in 0.2 mi South 5.8 mph - 0.00 in Fog , Snow Light Snow
2:48 AM 30.2 °F 24.3 °F 30.2 °F 100% 30.29 in 0.2 mi South 5.8 mph - 0.00 in Fog Light Freezing Fog
2:53 AM 30.9 °F 25.2 °F 30.0 °F 96% 30.33 in 0.2 mi South 5.8 mph - 0.00 in Fog Light Freezing Fog
3:34 AM 30.2 °F 24.3 °F 30.2 °F 100% 30.29 in 0.2 mi SSE 5.8 mph - N/A Fog Light Freezing Fog
3:44 AM 30.2 °F 24.3 °F 30.2 °F 100% 30.28 in 0.2 mi SSE 5.8 mph - N/A Fog Light Freezing Fog
3:53 AM 30.0 °F 24.1 °F 30.0 °F 100% 30.31 in 0.2 mi SSE 5.8 mph - N/A Fog Light Freezing Fog
4:10 AM 30.2 °F 24.3 °F 30.2 °F 100% 30.27 in 0.2 mi SSW 5.8 mph - N/A Fog Light Freezing Fog
4:29 AM 30.2 °F 25.4 °F 28.4 °F 93% 30.27 in 0.2 mi South 4.6 mph - N/A Fog Light Freezing Fog
4:53 AM 28.9 °F 25.2 °F 28.9 °F 100% 30.30 in 0.2 mi South 3.5 mph - N/A Fog Light Freezing Fog
5:53 AM 28.9 °F - 28.0 °F 96% 30.30 in 0.2 mi Calm Calm - N/A Fog Light Freezing Fog
6:20 AM 28.4 °F 24.6 °F 28.4 °F 100% 30.27 in 0.2 mi SSW 3.5 mph - N/A Fog Light Freezing Fog
6:43 AM 28.4 °F 23.3 °F 28.4 °F 100% 30.26 in 0.2 mi SW 4.6 mph - N/A Fog Light Freezing Fog
6:53 AM 28.0 °F 22.8 °F 28.0 °F 100% 30.31 in 0.2 mi SW 4.6 mph - N/A Fog Light Freezing Fog
7:53 AM 28.9 °F 23.9 °F 27.0 °F 92% 30.30 in 0.2 mi SSW 4.6 mph - N/A Fog Light Freezing Fog
8:53 AM 30.0 °F 24.1 °F 28.0 °F 92% 30.31 in 0.2 mi South 5.8 mph - N/A Fog Light Freezing Fog
9:53 AM 30.0 °F 25.2 °F 28.0 °F 92% 30.32 in 0.2 mi South 4.6 mph - N/A Fog Light Freezing Fog
10:53 AM 30.9 °F 25.2 °F 28.9 °F 92% 30.30 in 0.2 mi SSW 5.8 mph - N/A Fog Light Freezing Fog
11:53 AM 30.9 °F 27.5 °F 28.9 °F 92% 30.29 in 0.2 mi South 3.5 mph - N/A Fog Light Freezing Fog
12:53 PM 32.0 °F 27.5 °F 28.9 °F 88% 30.27 in 0.2 mi WSW 4.6 mph - N/A Fog Fog
1:53 PM 32.0 °F - 30.0 °F 92% 30.26 in 0.2 mi Calm Calm - N/A Fog Fog
2:26 PM 32.0 °F 26.4 °F 28.4 °F 87% 30.22 in 0.2 mi South 5.8 mph - N/A Fog Fog
2:36 PM 30.2 °F - 28.4 °F 93% 30.22 in 0.2 mi Calm Calm - N/A Fog Light Freezing Fog
2:46 PM 30.2 °F 26.7 °F 28.4 °F 93% 30.22 in 0.2 mi South 3.5 mph - N/A Fog Light Freezing Fog
2:53 PM 30.9 °F 25.2 °F 28.0 °F 89% 30.26 in 0.2 mi SE 5.8 mph - N/A Fog Light Freezing Fog
3:32 PM 30.2 °F 26.7 °F 28.4 °F 93% 30.21 in 0.2 mi SW 3.5 mph - N/A Fog Light Freezing Fog
3:44 PM 30.2 °F 24.3 °F 28.4 °F 93% 30.21 in 0.2 mi SSW 5.8 mph - N/A Fog Light Freezing Fog
3:53 PM 30.9 °F 27.5 °F 28.9 °F 92% 30.26 in 0.2 mi WSW 3.5 mph - N/A Fog Light Freezing Fog
4:15 PM 30.2 °F - 28.4 °F 93% 30.22 in 0.2 mi Calm Calm - N/A Fog Light Freezing Fog
4:24 PM 30.2 °F 24.3 °F 28.4 °F 93% 30.22 in 0.2 mi SSW 5.8 mph - N/A Fog Light Freezing Fog
4:49 PM 30.2 °F - 28.4 °F 93% 30.21 in 1.0 mi Calm Calm - N/A   Mist
4:50 PM 30.9 °F 27.5 °F 28.0 °F 89% 30.25 in 1.0 mi Variable 3.5 mph - N/A   Mist
4:58 PM 30.2 °F 26.7 °F 28.4 °F 93% 30.21 in 0.8 mi SSW 3.5 mph - N/A   Mist
5:27 PM 30.2 °F - 28.4 °F 93% 30.22 in 0.2 mi Calm Calm - N/A Fog Light Freezing Fog
5:40 PM 32.0 °F 27.5 °F 28.4 °F 87% 30.22 in 0.2 mi South 4.6 mph - N/A Fog Fog
5:53 PM 32.0 °F 27.5 °F 28.9 °F 88% 30.26 in 0.2 mi South 4.6 mph - N/A Fog Fog
6:53 PM 32.0 °F 25.6 °F 28.9 °F 88% 30.27 in 0.2 mi South 6.9 mph - N/A Fog Fog
7:27 PM 32.0 °F 25.6 °F 28.4 °F 87% 30.23 in 0.2 mi SSE 6.9 mph - N/A Fog Fog
7:34 PM 32.0 °F 28.7 °F 28.4 °F 87% 30.22 in 0.8 mi South 3.5 mph - N/A   Mist
7:41 PM 32.0 °F 25.6 °F 28.4 °F 87% 30.23 in 1.0 mi South 6.9 mph - N/A   Mist
7:53 PM 32.0 °F 28.7 °F 28.9 °F 88% 30.27 in 1.5 mi SSE 3.5 mph - N/A   Overcast
8:04 PM 32.0 °F 25.6 °F 28.4 °F 87% 30.23 in 3.0 mi South 6.9 mph - N/A   Overcast
8:53 PM 32.0 °F 28.7 °F 28.9 °F 88% 30.27 in 10.0 mi SSE 3.5 mph - N/A   Overcast
9:33 PM 30.2 °F 25.4 °F 28.4 °F 93% 30.24 in 10.0 mi SSE 4.6 mph - N/A   Overcast
9:53 PM 30.9 °F 26.2 °F 28.9 °F 92% 30.28 in 10.0 mi SSW 4.6 mph - N/A   Overcast
10:53 PM 30.9 °F 27.5 °F 28.9 °F 92% 30.28 in 8.0 mi Variable 3.5 mph - N/A   Overcast
11:09 PM 30.2 °F 26.7 °F 28.4 °F 93% 30.24 in 5.0 mi South 3.5 mph - N/A   Overcast
11:53 PM 30.0 °F - 28.9 °F 96% 30.28 in 4.0 mi Calm Calm - N/A   Overcast